Location: Gloden
(48.4833°N, 15.3167°E)
Time: 16:47:42
(UTC+00:00)

N. Korean satellite - Visible Passes

Search period start: 08 March 2021 00:00
Search period end: 18 March 2021 00:00
Orbit: 451 x 502 km, 97.2° (Epoch: 07 March)

Date Brightness Start Highest point End Pass type
(mag) Time Alt. Az. Time Alt. Az. Time Alt. Az.
08 Mar 10.2 03:13:32 10° E 03:13:44 10° E 03:13:56 10° E visible
08 Mar 6.5 04:43:54 10° N 04:47:26 68° WNW 04:51:02 10° SSW visible
09 Mar 7.3 04:17:08 10° NNE 04:20:40 56° E 04:24:13 10° S visible
10 Mar 8.9 03:50:40 10° NE 03:53:47 27° E 03:56:55 10° SSE visible
11 Mar 9.8 03:24:46 10° NE 03:26:48 14° E 03:28:50 10° SE visible
12 Mar 6.7 04:29:58 10° NNE 04:33:36 82° ESE 04:37:14 10° S visible
13 Mar 8.2 04:03:20 10° NNE 04:06:45 38° E 04:10:10 10° SSE visible
14 Mar 9.5 03:37:04 10° NE 03:39:47 20° E 03:42:31 10° SE visible
15 Mar 10.3 03:12:18 10° E 03:12:43 10° E 03:13:09 10° E visible
16 Mar 7.4 04:16:03 10° NNE 04:19:38 55° E 04:23:14 10° S visible
17 Mar 8.9 03:49:32 10° NE 03:52:43 27° E 03:55:53 10° SSE visible
